period_start,C,m1,H,J0,J1,J2,J3,J4,J5,JA,JB,JC,JD,JJ,JK,JN,#
2014-09-04 00:04:02,0.01,0.26,0.00,25.80,29.95,32.24,9.33,37.93,1000.04,2028.00,3331.85,3235.95,3504.04,499.61,483.90,8.49,0000 0000 0000 0000 000000
2014-09-04 00:09:03,0.03,0.27,0.00,25.82,29.96,32.26,9.33,38.02,1000.04,2028.00,3331.20,3235.42,3504.00,500.29,484.34,8.54,0000 0000 0000 0000 000000
2014-09-04 00:14:04,0.01,0.27,0.00,25.82,29.97,32.27,9.34,38.00,1000.02,2028.00,3330.98,3235.01,3503.57,499.99,484.01,8.58,0000 0000 0000 0000 000000
2014-09-04 00:19:05,0.01,0.27,0.00,25.84,29.99,32.30,9.33,37.93,1000.02,2027.98,3330.42,3234.97,3503.02,499.98,483.95,8.62,0000 0000 0000 0000 000000
2014-09-04 00:24:06,0.02,0.27,0.00,25.85,30.00,32.31,9.30,38.10,1000.01,2027.93,3330.01,3234.45,3502.90,499.81,483.68,8.66,0000 0000 0000 0000 000000
2014-09-04 00:29:07,-0.01,0.27,0.00,25.87,30.02,32.32,9.29,38.08,1000.01,2027.73,3329.77,3234.04,3502.21,499.76,483.66,8.70,0000 0000 0000 0000 000000
2014-09-04 00:34:09,-0.00,0.27,0.00,25.88,30.02,32.34,9.35,38.08,1000.01,2027.47,3329.30,3234.00,3502.00,500.02,483.92,8.74,0000 0000 0000 0000 000000
2014-09-04 00:39:09,-0.02,0.27,0.00,25.87,30.05,32.36,9.27,38.05,999.96,2027.18,3329.01,3233.88,3501.85,499.87,483.67,8.79,0000 0000 0000 0000 000000
2014-09-04 00:44:11,0.02,0.27,0.00,25.87,30.05,32.36,9.32,38.14,999.78,2027.03,3328.96,3233.11,3501.11,500.02,483.94,8.83,0000 0000 0000 0000 000000
2014-09-04 00:49:12,0.01,0.27,0.00,25.92,30.07,32.38,9.29,38.02,999.91,2027.01,3328.46,3233.00,3501.00,499.87,483.70,8.87,0000 0000 0000 0000 000000
2014-09-04 00:54:13,0.00,0.27,0.00,25.93,30.08,32.40,9.30,38.02,1000.01,2027.00,3328.01,3232.99,3500.89,500.11,483.81,8.91,0000 0000 0000 0000 000000
2014-09-04 00:59:14,0.02,0.27,0.00,25.95,30.10,32.41,9.28,38.21,1000.01,2027.00,3327.98,3232.78,3500.22,500.05,483.91,8.95,0000 0000 0000 0000 000000
2014-09-04 01:04:14,0.02,0.27,0.00,25.95,30.11,32.43,9.36,38.20,1000.01,2027.00,3327.80,3232.44,3500.02,499.99,483.75,9.00,0000 0000 0000 0000 000000
2014-09-04 01:09:16,0.02,0.27,0.00,25.94,30.12,32.44,9.29,37.97,1000.01,2027.00,3327.09,3232.03,3499.99,499.49,483.32,9.04,0000 0000 0000 0000 000000
2014-09-04 01:14:17,0.00,0.27,0.00,25.96,30.13,32.44,9.32,38.03,1000.01,2026.98,3327.00,3232.00,3499.89,500.13,483.86,9.08,0000 0000 0000 0000 000000
2014-09-04 01:19:18,0.01,0.27,0.00,25.98,30.15,32.45,9.27,37.93,1000.01,2026.94,3326.86,3231.95,3499.18,499.73,483.59,9.12,0000 0000 0000 0000 000000
2014-09-04 01:24:19,0.03,0.27,0.00,25.97,30.15,32.47,9.33,37.82,1000.01,2026.93,3326.47,3231.54,3499.01,499.60,483.35,9.16,0000 0000 0000 0000 000000
2014-09-04 01:29:21,-0.01,0.27,0.00,25.99,30.17,32.47,9.32,38.02,1000.01,2026.80,3326.01,3231.03,3498.99,500.07,483.88,9.21,0000 0000 0000 0000 000000
2014-09-04 01:34:21,0.01,0.27,0.00,25.99,30.17,32.49,9.27,37.82,1000.01,2026.79,3326.00,3231.03,3498.94,499.97,483.60,9.25,0000 0000 0000 0000 000000
2014-09-04 01:39:22,-0.02,0.27,0.00,26.00,30.19,32.50,9.29,37.95,1000.01,2026.57,3325.94,3231.00,3498.37,499.49,483.20,9.29,0000 0000 0000 0000 000000
2014-09-04 01:44:23,-0.02,0.27,0.00,26.00,30.20,32.51,9.27,37.72,1000.01,2026.18,3325.27,3230.92,3498.01,499.68,483.34,9.33,0000 0000 0000 0000 000000
2014-09-04 01:49:24,0.01,0.27,0.00,26.02,30.20,32.51,9.34,37.67,1000.01,2026.04,3325.02,3230.45,3497.98,500.09,483.66,9.37,0000 0000 0000 0000 000000
2014-09-04 01:54:25,0.01,0.27,0.00,26.02,30.22,32.52,9.31,37.95,1000.01,2026.01,3325.00,3230.07,3497.77,499.81,483.55,9.41,0000 0000 0000 0000 000000
2014-09-04 01:59:27,0.01,0.27,0.00,26.03,30.22,32.53,9.35,37.98,1000.01,2026.00,3324.97,3230.01,3497.21,499.93,483.50,9.46,0000 0000 0000 0000 000000
2014-09-04 02:04:28,0.01,0.27,0.00,26.03,30.23,32.54,9.28,37.81,1000.01,2026.00,3324.53,3230.00,3497.02,500.03,483.69,9.50,0000 0000 0000 0000 000000
2014-09-04 02:09:29,0.00,0.27,0.00,26.06,30.25,32.54,9.34,37.77,1000.02,2026.00,3324.10,3229.99,3496.99,500.29,483.88,9.54,0000 0000 0000 0000 000000
2014-09-04 02:14:30,0.01,0.27,0.00,26.09,30.25,32.57,9.32,37.86,1000.02,2026.00,3324.00,3229.82,3496.92,499.97,483.52,9.58,0000 0000 0000 0000 000000
2014-09-04 02:19:31,0.02,0.28,0.00,26.10,30.26,32.57,9.30,37.81,1000.01,2026.00,3324.00,3229.45,3496.65,500.11,483.52,9.62,0000 0000 0000 0000 000000
2014-09-04 02:24:33,0.02,0.28,0.00,26.10,30.27,32.57,9.26,37.85,1000.01,2026.00,3323.78,3229.07,3496.07,499.92,483.41,9.67,0000 0000 0000 0000 000000
2014-09-04 02:29:33,0.01,0.28,0.00,26.13,30.27,32.58,9.38,37.87,1000.01,2025.99,3323.30,3229.01,3496.00,500.48,483.92,9.71,0000 0000 0000 0000 000000
2014-09-04 02:34:35,-0.00,0.28,0.00,26.13,30.30,32.59,9.32,37.97,1000.01,2025.98,3323.02,3228.98,3495.98,500.04,483.68,9.75,0000 0000 0000 0000 000000
2014-09-04 02:39:36,0.01,0.28,0.00,26.12,30.30,32.60,9.28,37.94,1000.01,2025.96,3323.00,3228.93,3495.80,499.66,483.21,9.79,0000 0000 0000 0000 000000
2014-09-04 02:44:37,0.01,0.28,0.00,26.12,30.31,32.61,9.23,37.88,1000.01,2025.89,3322.94,3228.55,3495.13,500.09,483.71,9.83,0000 0000 0000 0000 000000
2014-09-04 02:49:38,0.01,0.28,0.00,26.14,30.32,32.63,9.35,38.08,1000.01,2025.67,3322.38,3228.09,3495.00,500.09,483.59,9.87,0000 0000 0000 0000 000000
2014-09-04 02:54:39,-0.02,0.28,0.00,26.15,30.33,32.63,9.33,37.78,1000.01,2025.63,3322.01,3228.00,3494.99,500.10,483.62,9.92,0000 0000 0000 0000 000000
2014-09-04 02:59:40,-0.02,0.28,0.00,26.16,30.35,32.64,9.28,38.07,1000.01,2025.25,3322.00,3227.99,3494.70,499.64,483.04,9.96,0000 0000 0000 0000 000000
2014-09-04 03:04:41,-0.00,0.28,0.00,26.18,30.35,32.65,9.28,37.98,1000.01,2025.12,3321.94,3227.96,3494.27,500.05,483.42,10.00,0000 0000 0000 0000 000000
2014-09-04 03:09:42,0.03,0.28,0.00,26.22,30.37,32.66,9.29,37.75,1000.01,2025.09,3321.20,3227.37,3494.02,499.89,483.32,10.04,0000 0000 0000 0000 000000
2014-09-04 03:14:43,0.00,0.28,0.00,26.23,30.37,32.67,9.29,37.91,1000.01,2025.07,3321.00,3227.02,3493.97,500.35,483.65,10.08,0000 0000 0000 0000 000000
2014-09-04 03:19:44,-0.00,0.28,0.00,26.24,30.39,32.68,9.35,37.85,1000.01,2025.02,3320.99,3227.00,3493.72,499.94,483.18,10.12,0000 0000 0000 0000 000000
2014-09-04 03:24:45,0.01,0.28,0.00,26.25,30.40,32.69,9.31,37.87,1000.01,2025.00,3320.82,3226.98,3493.12,500.01,483.14,10.17,0000 0000 0000 0000 000000
2014-09-04 03:29:46,0.01,0.28,0.00,26.26,30.40,32.71,9.33,37.90,1000.01,2025.00,3320.40,3226.95,3493.00,499.81,482.97,10.21,0000 0000 0000 0000 000000
2014-09-04 03:34:47,0.02,0.28,0.00,26.26,30.42,32.71,9.31,37.96,1000.01,2025.00,3320.05,3226.52,3492.99,500.16,483.52,10.25,0000 0000 0000 0000 000000
2014-09-04 03:39:48,0.01,0.28,0.00,26.26,30.42,32.72,9.35,38.07,1000.01,2025.00,3320.00,3226.04,3492.86,499.94,483.11,10.29,0000 0000 0000 0000 000000
2014-09-04 03:44:50,0.00,0.28,0.00,26.28,30.44,32.74,9.22,38.09,1000.00,2025.00,3319.99,3226.02,3492.56,499.49,482.79,10.33,0000 0000 0000 0000 000000
2014-09-04 03:49:51,0.01,0.28,0.00,26.30,30.45,32.74,9.36,38.05,1000.01,2024.99,3319.87,3226.00,3492.05,500.40,483.54,10.38,0000 0000 0000 0000 000000
2014-09-04 03:54:52,0.01,0.28,0.00,26.32,30.45,32.76,9.22,38.18,1000.01,2024.99,3319.42,3225.96,3492.00,499.56,482.65,10.42,0000 0000 0000 0000 000000
2014-09-04 03:59:54,0.02,0.28,0.00,26.32,30.47,32.77,9.30,38.10,1000.01,2024.99,3319.01,3225.50,3491.91,500.13,483.32,10.46,0000 0000 0000 0000 000000
2014-09-04 04:04:55,0.01,0.28,0.00,26.34,30.47,32.78,9.27,38.13,1000.01,2024.98,3318.98,3225.16,3491.46,499.96,483.09,10.50,0000 0000 0000 0000 000000
2014-09-04 04:09:56,0.00,0.28,0.00,26.32,30.49,32.79,9.40,38.26,1000.01,2024.94,3318.87,3225.01,3491.03,500.68,483.86,10.54,0000 0000 0000 0000 000000
2014-09-04 04:14:57,0.01,0.28,0.00,26.35,30.50,32.79,9.36,37.99,1000.01,2024.86,3318.16,3224.99,3490.97,499.86,483.13,10.58,0000 0000 0000 0000 000000
2014-09-04 04:19:58,0.00,0.29,0.00,26.35,30.51,32.81,9.32,38.07,1000.01,2024.75,3318.00,3224.76,3490.67,499.82,482.90,10.63,0000 0000 0000 0000 000000
2014-09-04 04:24:59,0.01,0.29,0.00,26.35,30.52,32.82,9.25,38.02,1000.01,2024.46,3317.89,3224.11,3490.04,499.52,482.74,10.67,0000 0000 0000 0000 000000
2014-09-04 04:30:00,-0.01,0.28,0.00,26.34,30.52,32.83,9.29,37.83,1000.01,2024.25,3317.44,3224.00,3490.00,499.67,482.90,10.71,0000 0000 0000 0000 000000
2014-09-04 04:35:01,-0.01,0.28,0.00,26.35,30.55,32.85,9.27,37.95,1000.02,2024.07,3317.01,3223.99,3489.70,500.00,483.30,10.75,0000 0000 0000 0000 000000
2014-09-04 04:40:03,0.01,0.28,0.00,26.36,30.55,32.84,9.31,37.92,1000.03,2024.04,3317.00,3223.81,3489.09,500.18,483.28,10.79,0000 0000 0000 0000 000000
2014-09-04 04:45:04,0.02,0.29,0.00,26.36,30.55,32.86,9.34,38.04,1000.03,2024.01,3316.71,3223.12,3488.99,499.90,482.97,10.84,0000 0000 0000 0000 000000
2014-09-04 04:50:05,0.01,0.29,0.00,26.38,30.57,32.87,9.29,37.97,1000.06,2024.01,3316.10,3223.00,3488.92,500.00,483.10,10.88,0000 0000 0000 0000 000000
2014-09-04 04:55:06,0.01,0.29,0.00,26.36,30.57,32.87,9.31,37.97,1000.10,2024.00,3315.99,3222.98,3488.28,499.87,483.03,10.92,0000 0000 0000 0000 000000
2014-09-04 05:00:07,0.02,0.29,0.00,26.35,30.58,32.88,9.28,37.86,1000.26,2024.00,3315.59,3222.73,3488.00,500.16,483.46,10.96,0000 0000 0000 0000 000000
2014-09-04 05:05:09,0.02,0.29,0.00,26.37,30.60,32.90,9.28,37.83,1000.41,2024.00,3315.18,3222.22,3487.99,499.86,483.15,11.00,0000 0000 0000 0000 000000
2014-09-04 05:10:10,0.01,0.29,0.00,26.38,30.60,32.89,9.35,38.11,1000.25,2024.00,3315.02,3222.02,3487.73,500.05,483.23,11.05,0000 0000 0000 0000 000000
2014-09-04 05:15:11,0.01,0.29,0.00,26.37,30.60,32.91,9.28,37.79,1000.32,2024.00,3314.92,3221.99,3487.05,499.51,482.90,11.09,0000 0000 0000 0000 000000
2014-09-04 05:20:12,0.02,0.29,0.00,26.37,30.62,32.92,9.31,37.67,1000.30,2024.00,3314.31,3221.77,3486.98,500.06,483.12,11.13,0000 0000 0000 0000 000000
2014-09-04 05:25:13,0.02,0.29,0.00,26.39,30.62,32.92,9.27,37.75,1000.18,2023.99,3314.01,3221.18,3486.70,499.93,483.07,11.17,0000 0000 0000 0000 000000
2014-09-04 05:30:14,0.01,0.29,0.00,26.37,30.62,32.93,9.27,37.79,1000.12,2023.98,3313.97,3221.01,3486.11,499.90,483.09,11.21,0000 0000 0000 0000 000000
2014-09-04 05:35:15,0.00,0.29,0.00,26.38,30.62,32.94,9.35,38.16,1000.17,2023.98,3313.75,3220.99,3486.00,500.38,483.70,11.25,0000 0000 0000 0000 000000
2014-09-04 05:40:16,0.04,0.29,0.00,26.36,30.64,32.93,9.33,38.02,1000.20,2023.97,3313.09,3220.57,3485.59,500.04,483.31,11.30,0000 0000 0000 0000 000000
2014-09-04 05:45:17,0.01,0.30,0.00,26.36,30.65,32.94,9.25,37.99,1000.26,2023.96,3312.99,3220.13,3485.09,499.91,483.16,11.34,0000 0000 0000 0000 000000
2014-09-04 05:50:19,0.00,0.30,0.00,26.37,30.65,32.94,9.29,37.96,1000.47,2023.89,3312.51,3220.00,3484.99,499.77,482.98,11.38,0000 0000 0000 0000 000000
2014-09-04 05:55:20,0.02,0.30,0.00,26.36,30.65,32.94,9.36,37.99,1000.50,2023.92,3312.01,3219.95,3484.68,500.47,483.67,11.42,0000 0000 0000 0000 000000
2014-09-04 06:00:21,0.03,0.30,0.00,26.37,30.65,32.95,9.30,38.02,1000.50,2023.91,3311.91,3219.27,3484.04,500.18,483.54,11.46,0000 0000 0000 0000 000000
2014-09-04 06:05:22,-0.01,0.30,0.00,26.34,30.65,32.94,9.29,37.96,1000.51,2023.77,3311.36,3219.00,3483.96,499.60,483.10,11.51,0000 0000 0000 0000 000000
2014-09-04 06:10:23,0.01,0.30,0.00,26.34,30.65,32.94,9.32,38.04,1000.51,2023.66,3311.02,3218.88,3483.27,499.73,483.07,11.55,0000 0000 0000 0000 000000
2014-09-04 06:15:25,0.01,0.30,0.00,26.32,30.65,32.95,9.30,37.90,1000.52,2023.37,3310.46,3218.13,3482.94,499.94,483.37,11.59,0000 0000 0000 0000 000000
2014-09-04 06:20:26,0.03,0.30,0.00,26.32,30.65,32.95,9.23,38.05,1000.58,2023.35,3309.99,3217.90,3482.18,499.56,483.12,11.63,0000 0000 0000 0000 000000
2014-09-04 06:25:27,0.04,0.30,0.00,26.31,30.65,32.95,9.26,37.95,1000.79,2023.25,3309.24,3217.09,3481.47,499.57,483.24,11.67,0000 0000 0000 0000 000000
2014-09-04 06:30:28,0.07,0.30,0.00,26.30,30.65,32.95,9.31,37.80,1000.76,2023.28,3308.45,3216.39,3480.62,500.21,483.81,11.71,0000 0000 0000 0000 000000
2014-09-04 06:35:29,0.05,0.31,0.00,26.30,30.65,32.94,9.36,37.98,1000.87,2023.36,3307.85,3215.81,3479.88,500.16,483.79,11.76,0000 0000 0000 0000 000000
2014-09-04 06:40:30,0.07,0.31,0.00,26.29,30.65,32.93,9.31,38.01,1000.88,2023.56,3307.00,3214.98,3478.89,499.81,483.44,11.80,0000 0000 0000 0000 000000
2014-09-04 06:45:32,0.07,0.31,0.00,26.28,30.65,32.93,9.39,37.88,1000.95,2023.63,3306.09,3214.09,3477.86,500.58,484.13,11.84,0000 0000 0000 0000 000000
2014-09-04 06:50:33,0.04,0.31,0.00,26.29,30.65,32.93,9.35,37.92,1000.97,2023.57,3305.21,3213.26,3476.80,500.58,484.22,11.88,0000 0000 0000 0000 000000
2014-09-04 06:55:34,0.07,0.32,0.00,26.29,30.64,32.93,9.39,37.92,1000.99,2023.56,3304.29,3212.39,3475.83,499.95,483.69,11.92,0000 0000 0000 0000 000000
2014-09-04 07:00:36,0.07,0.32,0.00,26.31,30.63,32.93,9.32,38.00,1000.99,2023.67,3303.57,3211.59,3474.78,500.08,483.53,11.97,0000 0000 0000 0000 000000
2014-09-04 07:05:37,0.01,0.32,0.00,26.29,30.62,32.93,9.31,37.95,1000.99,2023.69,3302.93,3210.91,3473.86,499.93,483.58,12.01,0000 0000 0000 0000 000000
2014-09-04 07:10:38,0.04,0.32,0.00,26.30,30.62,32.90,9.34,37.96,1001.02,2023.41,3302.09,3210.06,3472.89,500.02,483.70,12.05,0000 0000 0000 0000 000000
2014-09-04 07:15:39,0.05,0.32,0.00,26.30,30.62,32.91,9.26,37.97,1001.02,2023.25,3301.36,3209.28,3472.09,499.62,483.25,12.09,0000 0000 0000 0000 000000
2014-09-04 07:20:41,0.03,0.33,0.00,26.28,30.62,32.91,9.29,37.92,1001.01,2023.40,3300.97,3208.99,3471.56,499.72,483.44,12.13,0000 0000 0000 0000 000000
2014-09-04 07:25:42,0.06,0.33,0.00,26.27,30.62,32.90,9.33,37.95,1001.11,2023.50,3300.20,3208.41,3470.99,500.27,484.10,12.17,0000 0000 0000 0000 000000
2014-09-04 07:30:43,-0.01,0.33,0.00,26.23,30.62,32.91,9.31,37.97,1001.22,2023.27,3299.82,3207.98,3470.25,500.02,483.85,12.22,0000 0000 0000 0000 000000
2014-09-04 07:35:44,0.06,0.33,0.00,26.23,30.60,32.90,9.40,37.98,1001.28,2023.19,3299.07,3207.28,3469.68,500.45,484.37,12.26,0000 0000 0000 0000 000000
2014-09-04 07:40:45,0.04,0.33,0.00,26.22,30.60,32.90,9.32,37.91,1001.10,2023.43,3298.59,3206.91,3468.97,500.04,483.96,12.30,0000 0000 0000 0000 000000
2014-09-04 07:45:46,0.07,0.34,0.00,26.21,30.60,32.89,9.26,37.73,1001.14,2023.58,3297.88,3206.11,3468.11,499.83,483.76,12.34,0000 0000 0000 0000 000000
2014-09-04 07:50:47,0.07,0.34,0.00,26.20,30.60,32.88,9.32,37.82,1001.36,2023.72,3297.05,3205.49,3467.25,500.28,484.34,12.38,0000 0000 0000 0000 000000
2014-09-04 07:55:48,0.04,0.34,0.00,26.19,30.58,32.89,9.29,37.92,1001.46,2023.73,3296.22,3204.69,3466.35,499.77,483.83,12.43,0000 0000 0000 0000 000000
2014-09-04 08:00:49,0.07,0.34,0.00,26.18,30.57,32.87,9.35,37.92,1001.47,2023.83,3295.38,3203.96,3465.31,499.94,484.12,12.47,0000 0000 0000 0000 000000
2014-09-04 08:05:50,0.06,0.35,0.00,26.15,30.57,32.86,9.39,37.81,1001.47,2023.90,3294.44,3203.11,3464.43,500.19,484.33,12.51,0000 0000 0000 0000 000000
2014-09-04 08:10:52,0.05,0.35,0.00,26.13,30.56,32.85,9.35,37.91,1001.47,2023.97,3293.77,3202.47,3463.64,500.01,484.13,12.55,0000 0000 0000 0000 000000
2014-09-04 08:15:53,0.04,0.35,0.00,26.08,30.55,32.86,9.31,37.82,1001.48,2023.96,3292.86,3201.76,3462.71,499.71,484.15,12.59,0000 0000 0000 0000 000000
2014-09-04 08:20:54,0.12,0.36,0.00,26.07,30.54,32.84,9.33,37.85,1001.48,2023.96,3290.72,3200.15,3461.01,500.33,484.78,12.63,0000 0000 0000 0000 000000
2014-09-04 08:25:55,0.05,0.36,0.00,26.07,30.52,32.83,9.36,37.99,1001.48,2023.97,3289.89,3199.40,3460.05,500.07,484.44,12.68,0000 0000 0000 0000 000000
2014-09-04 08:30:56,0.04,0.36,0.00,26.05,30.52,32.81,9.30,37.96,1001.48,2023.99,3289.05,3198.84,3459.23,500.03,484.38,12.72,0000 0000 0000 0000 000000
2014-09-04 08:35:57,0.05,0.36,0.00,26.02,30.50,32.80,9.29,37.99,1001.48,2023.99,3288.36,3198.07,3458.36,499.36,483.88,12.76,0000 0000 0000 0000 000000
2014-09-04 08:40:58,0.06,0.37,0.00,26.00,30.50,32.78,9.28,37.80,1001.48,2023.99,3287.56,3197.30,3457.39,499.87,484.22,12.80,0000 0000 0000 0000 000000
2014-09-04 08:46:00,0.06,0.37,0.00,25.97,30.47,32.77,9.33,37.87,1001.48,2023.99,3286.62,3196.53,3456.40,500.11,484.64,12.84,0000 0000 0000 0000 000000
2014-09-04 08:51:01,0.04,0.37,0.00,25.97,30.47,32.77,9.36,37.83,1001.48,2023.99,3285.81,3195.82,3455.56,499.96,484.35,12.89,0000 0000 0000 0000 000000
2014-09-04 08:56:02,0.05,0.37,0.00,25.96,30.45,32.75,9.28,37.83,1001.48,2023.99,3284.96,3194.97,3454.56,499.97,484.51,12.93,0000 0000 0000 0000 000000
2014-09-04 09:01:03,0.06,0.38,0.00,25.95,30.45,32.74,9.29,37.97,1001.48,2023.99,3284.11,3194.09,3453.61,499.38,483.87,12.97,0000 0000 0000 0000 000000
2014-09-04 09:06:04,0.05,0.38,0.00,25.94,30.42,32.71,9.43,37.81,1001.49,2023.99,3283.44,3193.38,3452.85,500.88,485.32,13.01,0000 0000 0000 0000 000000
2014-09-04 09:11:06,0.03,0.38,0.00,25.95,30.42,32.71,9.33,37.90,1001.49,2024.01,3282.77,3192.83,3451.96,499.91,484.44,13.05,0000 0000 0000 0000 000000
2014-09-04 09:16:07,0.05,0.38,0.00,25.95,30.40,32.68,9.37,37.83,1001.50,2024.02,3282.01,3192.05,3451.07,500.20,484.48,13.09,0000 0000 0000 0000 000000
2014-09-04 09:21:08,0.06,0.38,0.00,25.94,30.40,32.68,9.29,37.83,1001.50,2024.05,3281.32,3191.41,3450.26,499.58,484.00,13.14,0000 0000 0000 0000 000000
2014-09-04 09:26:09,0.05,0.39,0.00,25.94,30.38,32.66,9.35,37.92,1001.55,2024.06,3280.68,3190.70,3449.33,500.15,484.75,13.18,0000 0000 0000 0000 000000
2014-09-04 09:31:10,0.05,0.39,0.00,25.93,30.37,32.65,9.29,37.80,1001.53,2024.11,3279.86,3189.94,3448.37,499.98,484.56,13.22,0000 0000 0000 0000 000000
2014-09-04 09:36:11,0.06,0.39,0.00,25.92,30.36,32.64,9.31,37.83,1001.67,2024.22,3279.06,3189.11,3447.50,500.07,484.78,13.26,0000 0000 0000 0000 000000
2014-09-04 09:41:13,0.07,0.40,0.00,25.92,30.35,32.65,9.34,37.91,1001.82,2024.29,3278.24,3188.38,3446.60,500.51,485.27,13.30,0000 0000 0000 0000 000000
2014-09-04 09:46:14,0.07,0.40,0.00,25.92,30.34,32.64,9.38,37.77,1001.95,2024.47,3277.57,3187.68,3445.64,500.37,485.13,13.35,0000 0000 0000 0000 000000
2014-09-04 09:51:15,0.08,0.40,0.00,25.89,30.32,32.61,9.35,37.80,1001.97,2024.74,3276.70,3186.91,3444.63,499.83,484.55,13.39,0000 0000 0000 0000 000000
2014-09-04 09:56:17,0.05,0.40,0.00,25.88,30.32,32.60,9.35,37.83,1001.97,2024.76,3275.98,3186.09,3443.88,500.25,485.22,13.43,0000 0000 0000 0000 000000
2014-09-04 10:01:18,0.06,0.41,0.00,25.87,30.30,32.58,9.35,37.88,1001.98,2024.90,3275.31,3185.71,3443.06,500.22,485.19,13.47,0000 0000 0000 0000 000000
2014-09-04 10:06:19,0.04,0.41,0.00,25.84,30.29,32.58,9.31,37.97,1001.98,2024.97,3274.80,3185.03,3442.45,500.02,485.07,13.51,0000 0000 0000 0000 000000
2014-09-04 10:11:21,0.04,0.41,0.00,25.81,30.27,32.57,9.37,38.05,1002.02,2024.97,3274.05,3184.46,3441.71,500.23,485.08,13.55,0000 0000 0000 0000 000000
2014-09-04 10:16:22,0.03,0.41,0.00,25.77,30.27,32.55,9.37,37.91,1002.16,2024.97,3273.40,3183.98,3440.99,500.11,485.51,13.60,0000 0000 0000 0000 000000
2014-09-04 10:21:23,0.04,0.41,0.00,25.74,30.25,32.53,9.29,37.79,1002.22,2024.99,3272.99,3183.26,3440.24,499.92,485.09,13.64,0000 0000 0000 0000 000000
2014-09-04 10:26:23,0.02,0.42,0.00,25.72,30.24,32.53,9.34,37.83,1002.14,2024.99,3272.39,3182.97,3439.92,500.19,485.26,13.68,0000 0000 0000 0000 000000
2014-09-04 10:31:24,0.03,0.42,0.00,25.72,30.22,32.51,9.38,37.73,1002.27,2024.99,3272.00,3182.59,3439.19,500.19,485.42,13.72,0000 0000 0000 0000 000000
2014-09-04 10:36:26,0.03,0.42,0.00,25.71,30.21,32.50,9.36,37.63,1002.40,2024.99,3271.51,3182.02,3438.84,499.83,485.28,13.76,0000 0000 0000 0000 000000
2014-09-04 10:41:27,0.04,0.42,0.00,25.67,30.20,32.49,9.41,37.81,1002.32,2024.99,3271.00,3181.58,3438.06,500.21,485.44,13.81,0000 0000 0000 0000 000000
2014-09-04 10:46:28,0.03,0.42,0.00,25.63,30.18,32.51,9.42,37.73,1002.21,2025.00,3270.43,3181.02,3437.67,500.02,485.50,13.85,0000 0000 0000 0000 000000
2014-09-04 10:51:30,0.02,0.42,0.00,25.63,30.17,32.50,9.26,37.67,1002.16,2025.00,3269.98,3180.83,3437.03,499.50,484.99,13.89,0000 0000 0000 0000 000000
2014-09-04 10:56:31,0.04,0.42,0.00,25.63,30.15,32.48,9.39,37.79,1002.17,2025.01,3269.45,3180.14,3436.75,500.23,485.65,13.93,0000 0000 0000 0000 000000
2014-09-04 11:01:32,0.01,0.43,0.00,25.57,30.14,32.45,9.34,37.75,1002.30,2025.02,3269.03,3180.00,3436.06,500.24,485.77,13.97,0000 0000 0000 0000 000000
2014-09-04 11:06:33,0.01,0.43,0.00,25.51,30.12,32.44,9.44,37.61,1002.42,2025.03,3268.91,3179.91,3435.95,500.15,485.80,14.01,0000 0000 0000 0000 000000
2014-09-04 11:11:34,0.06,0.43,0.00,25.49,30.10,32.45,9.40,37.83,1002.45,2025.09,3268.16,3179.23,3435.28,499.92,485.61,14.06,0000 0000 0000 0000 000000
2014-09-04 11:16:35,0.01,0.43,0.00,25.47,30.08,32.42,9.28,37.85,1002.46,2025.21,3267.99,3179.01,3435.00,499.78,485.55,14.10,0000 0000 0000 0000 000000
2014-09-04 11:21:35,0.06,0.43,0.00,25.45,30.06,32.44,9.41,37.68,1002.46,2025.48,3267.74,3178.96,3434.76,500.13,486.06,14.14,0000 0000 0000 0000 000000
2014-09-04 11:26:37,0.07,0.43,0.00,25.41,30.05,32.45,9.42,37.88,1002.46,2025.82,3267.05,3178.46,3434.09,500.22,486.04,14.18,0000 0000 0000 0000 000000
2014-09-04 11:31:38,0.02,0.44,0.00,25.41,30.02,32.41,9.34,37.81,1002.45,2025.93,3266.99,3178.02,3434.00,500.05,485.87,14.22,0000 0000 0000 0000 000000
2014-09-04 11:36:39,0.03,0.44,0.00,25.38,30.00,32.35,9.40,37.84,1002.45,2025.98,3266.33,3177.98,3433.38,500.15,485.92,14.27,0000 0000 0000 0000 000000
2014-09-04 11:41:40,0.01,0.44,0.00,25.34,29.99,32.35,9.39,37.86,1002.45,2025.98,3266.00,3177.75,3433.01,500.12,486.14,14.31,0000 0000 0000 0000 000000
2014-09-04 11:46:41,0.02,0.44,0.00,25.32,29.96,32.35,9.42,37.96,1002.45,2025.99,3265.84,3177.08,3432.89,499.92,485.76,14.35,0000 0000 0000 0000 000000
2014-09-04 11:51:42,0.03,0.44,0.00,25.30,29.95,32.34,9.38,37.82,1002.43,2025.99,3265.08,3177.00,3432.15,500.16,486.07,14.39,0000 0000 0000 0000 000000
2014-09-04 11:56:43,0.00,0.44,0.00,25.29,29.92,32.34,9.41,37.80,1002.44,2026.00,3264.99,3176.90,3432.00,499.94,485.96,14.43,0000 0000 0000 0000 000000
2014-09-04 12:01:44,0.04,0.44,0.00,25.24,29.90,32.32,9.33,37.88,1002.46,2026.03,3264.68,3176.35,3431.84,499.73,485.59,14.47,0000 0000 0000 0000 000000
2014-09-04 12:06:46,0.03,0.44,0.00,25.20,29.88,32.31,9.37,37.81,1002.46,2026.09,3264.07,3176.04,3431.23,500.03,486.24,14.52,0000 0000 0000 0000 000000
2014-09-04 12:11:47,0.05,0.44,0.00,25.19,29.86,32.33,9.32,37.77,1002.46,2026.42,3264.00,3176.00,3431.00,499.70,485.93,14.56,0000 0000 0000 0000 000000
2014-09-04 12:16:48,0.02,0.45,0.00,25.15,29.83,32.27,9.35,37.77,1002.44,2026.75,3264.00,3175.99,3430.98,499.99,486.25,14.60,0000 0000 0000 0000 000000
2014-09-04 12:21:49,0.04,0.45,0.00,25.13,29.81,32.27,9.44,37.83,1002.45,2026.91,3263.48,3175.81,3430.55,500.23,486.50,14.64,0000 0000 0000 0000 000000
2014-09-04 12:26:50,0.03,0.45,0.00,25.10,29.79,32.23,9.36,37.71,1002.45,2026.94,3263.02,3175.19,3430.03,499.95,486.16,14.68,0000 0000 0000 0000 000000
2014-09-04 12:31:51,0.01,0.45,0.00,25.05,29.77,32.21,9.40,37.76,1002.42,2026.98,3263.00,3175.02,3430.00,500.00,486.38,14.73,0000 0000 0000 0000 000000
2014-09-04 12:36:52,0.00,0.45,0.00,25.02,29.75,32.21,9.38,37.81,1002.31,2026.99,3262.96,3175.00,3429.91,499.84,486.24,14.77,0000 0000 0000 0000 000000
2014-09-04 12:41:53,0.01,0.45,0.00,25.00,29.72,32.17,9.34,37.81,1002.17,2026.99,3262.56,3175.00,3429.48,499.78,486.17,14.81,0000 0000 0000 0000 000000
2014-09-04 12:46:54,0.02,0.45,0.00,24.96,29.70,32.15,9.38,37.75,1002.07,2027.00,3262.07,3174.91,3429.05,500.05,486.44,14.85,0000 0000 0000 0000 000000
2014-09-04 12:51:55,0.02,0.45,0.00,24.93,29.68,32.19,9.39,37.78,1002.03,2027.02,3262.00,3174.42,3429.00,500.14,486.57,14.89,0000 0000 0000 0000 000000
2014-09-04 12:56:56,0.01,0.45,0.00,24.90,29.65,32.14,9.35,37.74,1001.99,2027.05,3261.88,3174.03,3428.85,500.18,486.54,14.93,0000 0000 0000 0000 000000
2014-09-04 13:01:57,0.04,0.46,0.00,24.90,29.63,32.12,9.35,37.75,1002.01,2027.12,3261.24,3173.99,3428.13,499.65,486.04,14.98,0000 0000 0000 0000 000000